South Lake Tahoe, CA

11:45 PM PDT on June 24, 2017 (GMT -0700)
Lake Tahoe

Weather History for KTVL - December, 2010

Change the Weather History Date:

Sunday, December 12, 2010

  Actual Average Record
Temperature  
Mean Temperature 35 °F 30 °F  
Max Temperature 45 °F 43 °F 54 °F (2008)
Min Temperature 25 °F 17 °F -2 °F (1968)
Degree Days  
Heating Degree Days 30 35  
Month to date heating degree days 305 411  
Since 1 July heating degree days 2231 2504  
Cooling Degree Days 0 0  
Month to date cooling degree days 0 0  
Year to date cooling degree days 43 31  
Moisture  
Dew Point 27 °F    
Average Humidity 79    
Maximum Humidity 92    
Minimum Humidity 65    
Precipitation  
Precipitation 0.00 in - 1.15 in (1933)
Month to date precipitation 0.79  
Year to date precipitation 20.78  
Snow  
Snow 0.00 in - - ()
Month to date snowfall T  
Snow Depth 0.00 in    
Sea Level Pressure  
Sea Level Pressure 30.42 in    
Wind  
Wind Speed 2 mph (South)    
Max Wind Speed 8 mph    
Max Gust Speed 10 mph    
Visibility 5 miles    
Events Fog    
T = Trace of Precipitation, MM = Missing Value Source: NWS Daily Summary

Daily Weather History Graph

Daily Weather History Graph

Search for Another Location

Airport or City:

Trip Planner

Search our weather history database for the weather conditions in past years. The results will help you decide how hot, cold, wet, or windy it might be!

Date:

Astronomy

Dec. 12, 2010 Rise Set
Actual Time 7:09 AM PST 4:38 PM PST
Civil Twilight 6:39 AM PST 5:08 PM PST
Nautical Twilight 6:06 AM PST 5:41 PM PST
Astronomical Twilight 5:33 AM PST 6:13 PM PST
Moon 11:29 AM PST (12/12) 11:41 PM PST (12/12)
Length of Visible Light 10h 28m
Length of Day
9h 29m
Waxing Crescent, 43% of the Moon is Illuminated
Dec 12
Waxing Crescent
Dec 13
First Quarter
Dec 21
Full
Dec 27
Last Quarter
Jan 4
New

Hourly Weather History & Observations

Time (PST) Temp. Windchill Dew Point Humidity Pressure Visibility Wind Dir Wind Speed Gust Speed Precip Events Conditions
12:53 AM 28.9 °F - 25.0 °F 85% 30.37 in 8.0 mi Calm Calm - N/A   Clear
1:53 AM 27.0 °F - 24.1 °F 89% 30.40 in 9.0 mi Calm Calm - N/A   Clear
2:53 AM 27.0 °F - 23.0 °F 85% 30.41 in 10.0 mi Calm Calm - N/A   Clear
3:44 AM 24.8 °F - 21.2 °F 86% 30.44 in 10.0 mi Calm Calm - N/A   Partly Cloudy
3:53 AM 26.1 °F - 21.9 °F 84% 30.44 in 9.0 mi Calm Calm - N/A   Partly Cloudy
4:40 AM 24.8 °F - 21.2 °F 86% 30.44 in 10.0 mi Calm Calm - N/A   Mostly Cloudy
4:53 AM 25.0 °F - 21.9 °F 88% 30.45 in 10.0 mi Calm Calm - N/A   Overcast
5:21 AM 24.8 °F - 21.2 °F 86% 30.44 in 2.0 mi Calm Calm - N/A   Overcast
5:28 AM 24.8 °F 20.5 °F 21.2 °F 86% 30.45 in 1.2 mi SSW 3.5 mph - N/A   Overcast
5:34 AM 24.8 °F 20.5 °F 21.2 °F 86% 30.44 in 3.0 mi South 3.5 mph - N/A   Overcast
5:53 AM 25.0 °F 20.7 °F 21.9 °F 88% 30.47 in 6.0 mi South 3.5 mph - N/A   Overcast
5:56 AM 26.6 °F 21.2 °F 23.0 °F 86% 30.44 in 1.8 mi South 4.6 mph - N/A   Overcast
6:04 AM 26.6 °F 22.6 °F 23.0 °F 86% 30.45 in 0.2 mi South 3.5 mph - N/A Fog Light Freezing Fog
6:53 AM 27.0 °F 21.6 °F 24.1 °F 89% 30.47 in 0.2 mi South 4.6 mph - N/A Fog Light Freezing Fog
7:12 AM 26.6 °F 21.2 °F 23.0 °F 86% 30.45 in 2.5 mi South 4.6 mph - N/A   Overcast
7:27 AM 26.6 °F 20.0 °F 24.8 °F 93% 30.45 in 0.8 mi South 5.8 mph - N/A   Overcast
7:53 AM 26.1 °F 19.4 °F 24.1 °F 92% 30.49 in 0.2 mi South 5.8 mph - N/A Fog Light Freezing Fog
8:53 AM 28.0 °F 22.8 °F 26.1 °F 92% 30.51 in 0.2 mi South 4.6 mph - N/A Fog Light Freezing Fog
9:53 AM 32.0 °F - 30.0 °F 92% 30.49 in 0.2 mi Calm Calm - N/A Fog Fog
10:48 AM 33.8 °F - 30.2 °F 87% 30.46 in 1.5 mi Calm Calm - N/A   Overcast
10:53 AM 33.1 °F - 30.9 °F 92% 30.48 in 1.0 mi Calm Calm - N/A   Overcast
11:11 AM 33.8 °F - 32.0 °F 93% 30.45 in 3.0 mi Calm Calm - N/A   Overcast
11:20 AM 33.8 °F - 32.0 °F 93% 30.44 in 10.0 mi Calm Calm - N/A   Overcast
11:41 AM 33.8 °F - 30.2 °F 87% 30.42 in 10.0 mi Calm Calm - N/A   Scattered Clouds
11:53 AM 37.0 °F 34.5 °F 32.0 °F 82% 30.43 in 10.0 mi NE 3.5 mph - N/A   Clear
12:53 PM 41.0 °F 35.8 °F 33.1 °F 73% 30.38 in 10.0 mi NNE 8.1 mph - N/A   Clear
1:53 PM 43.0 °F 41.3 °F 33.1 °F 68% 30.36 in 10.0 mi NE 3.5 mph - N/A   Clear
2:53 PM 44.1 °F 42.5 °F 34.0 °F 68% 30.35 in 10.0 mi NNE 3.5 mph - N/A   Clear
3:53 PM 39.9 °F 36.7 °F 34.0 °F 79% 30.37 in 10.0 mi North 4.6 mph - N/A   Clear
4:53 PM 35.1 °F - 32.0 °F 89% 30.39 in 9.0 mi Calm Calm - N/A   Clear
5:53 PM 33.1 °F - 30.0 °F 89% 30.39 in 9.0 mi Calm Calm - N/A   Clear
6:53 PM 30.9 °F - 28.0 °F 89% 30.40 in 7.0 mi Calm Calm - N/A   Clear
7:34 PM 30.2 °F 25.4 °F 26.6 °F 86% 30.35 in 4.0 mi South 4.6 mph - N/A   Partly Cloudy
7:40 PM 30.2 °F 25.4 °F 26.6 °F 86% 30.35 in 1.8 mi South 4.6 mph - N/A   Scattered Clouds
10:34 PM 30.2 °F 23.4 °F 28.4 °F 93% 30.34 in 0.5 mi South 6.9 mph - N/A Fog Light Freezing Fog
10:53 PM 30.9 °F 24.3 °F 28.0 °F 89% 30.35 in 0.5 mi South 6.9 mph - N/A Fog Light Freezing Fog
11:53 PM 30.0 °F - 28.0 °F 92% 30.30 in 0.2 mi Calm Calm - N/A Fog Light Freezing Fog